TimePST,TemperatureF,Dew PointF,Humidity,Sea Level PressureIn,VisibilityMPH,Wind Direction,Wind SpeedMPH,Gust SpeedMPH,PrecipitationIn,Events,Conditions,WindDirDegrees,DateUTC
12:23 AM,41.0,39.9,96,30.08,1.5,Calm,Calm,-,N/A,,Clear,0,2013-11-11 08:23:00
12:25 AM,39.9,39.9,100,30.08,1.0,Calm,Calm,-,N/A,,Mist,0,2013-11-11 08:25:00
12:53 AM,41.0,39.9,96,30.08,3.0,Calm,Calm,-,N/A,,Scattered Clouds,0,2013-11-11 08:53:00
1:08 AM,39.9,39.9,100,30.09,6.0,Calm,Calm,-,N/A,,Mostly Cloudy,0,2013-11-11 09:08:00
1:15 AM,39.9,39.0,97,30.09,4.0,Calm,Calm,-,N/A,,Mostly Cloudy,0,2013-11-11 09:15:00
1:36 AM,41.0,39.0,93,30.09,7.0,Calm,Calm,-,N/A,,Scattered Clouds,0,2013-11-11 09:36:00
1:53 AM,44.1,42.1,93,30.09,1.5,Calm,Calm,-,N/A,,Mostly Cloudy,0,2013-11-11 09:53:00
1:59 AM,44.1,44.1,100,30.08,0.8,Calm,Calm,-,N/A,,Mostly Cloudy,0,2013-11-11 09:59:00
2:16 AM,41.0,39.9,96,30.09,0.2,Calm,Calm,-,N/A,Fog,Fog,0,2013-11-11 10:16:00
2:31 AM,42.1,42.1,100,30.10,0.5,WNW,4.6,-,N/A,Fog,Fog,300,2013-11-11 10:31:00
2:49 AM,42.8,42.8,100,30.10,1.2,NW,3.5,-,N/A,,Overcast,310,2013-11-11 10:49:00
2:53 AM,43.0,42.1,97,30.11,1.2,WNW,3.5,-,N/A,,Overcast,300,2013-11-11 10:53:00
3:02 AM,44.1,43.0,96,30.11,0.5,Calm,Calm,-,N/A,Fog,Fog,0,2013-11-11 11:02:00
3:27 AM,43.0,42.1,97,30.10,0.2,Calm,Calm,-,N/A,Fog,Fog,0,2013-11-11 11:27:00
3:51 AM,42.8,42.8,100,30.11,1.0,Calm,Calm,-,N/A,,Mist,0,2013-11-11 11:51:00
3:53 AM,42.1,42.1,100,30.12,1.8,Calm,Calm,-,N/A,,Overcast,0,2013-11-11 11:53:00
3:56 AM,42.1,42.1,100,30.12,4.0,Calm,Calm,-,N/A,,Overcast,0,2013-11-11 11:56:00
4:25 AM,42.1,42.1,100,30.13,1.8,North,3.5,-,N/A,,Overcast,350,2013-11-11 12:25:00
4:29 AM,42.1,42.1,100,30.12,0.8,NNW,3.5,-,N/A,,Overcast,330,2013-11-11 12:29:00
4:42 AM,43.0,42.1,97,30.12,0.2,Calm,Calm,-,N/A,Fog,Fog,0,2013-11-11 12:42:00
4:53 AM,43.0,43.0,100,30.11,0.2,Calm,Calm,-,N/A,Fog,Fog,0,2013-11-11 12:53:00
5:53 AM,43.0,42.1,97,30.14,0.5,Calm,Calm,-,N/A,Fog,Fog,0,2013-11-11 13:53:00
6:53 AM,43.0,42.1,97,30.14,0.5,Calm,Calm,-,N/A,Fog,Fog,0,2013-11-11 14:53:00
7:05 AM,43.0,43.0,100,30.15,0.2,NW,3.5,-,N/A,Fog,Fog,320,2013-11-11 15:05:00
7:15 AM,43.0,43.0,100,30.15,0.5,NW,3.5,-,N/A,Fog,Fog,320,2013-11-11 15:15:00
7:26 AM,43.0,42.1,97,30.16,0.2,Calm,Calm,-,N/A,Fog,Fog,0,2013-11-11 15:26:00
7:53 AM,43.0,42.1,97,30.17,0.2,Calm,Calm,-,N/A,Fog,Fog,0,2013-11-11 15:53:00
8:10 AM,42.1,42.1,100,30.16,1.0,Calm,Calm,-,N/A,,Mist,0,2013-11-11 16:10:00
8:13 AM,42.1,42.1,100,30.16,2.5,Calm,Calm,-,N/A,,Mostly Cloudy,0,2013-11-11 16:13:00
8:18 AM,43.0,42.1,97,30.16,7.0,Calm,Calm,-,N/A,,Scattered Clouds,0,2013-11-11 16:18:00
8:53 AM,45.0,44.1,97,30.17,9.0,West,3.5,-,N/A,,Partly Cloudy,280,2013-11-11 16:53:00
9:03 AM,45.0,44.1,97,30.17,2.0,West,5.8,-,N/A,,Mostly Cloudy,280,2013-11-11 17:03:00
9:10 AM,46.0,45.0,96,30.17,1.8,WNW,4.6,-,N/A,,Mostly Cloudy,290,2013-11-11 17:10:00
9:15 AM,46.0,45.0,96,30.17,3.0,WNW,4.6,-,N/A,,Mostly Cloudy,300,2013-11-11 17:15:00
9:28 AM,48.0,45.0,89,30.15,8.0,NE,4.6,-,N/A,,Scattered Clouds,40,2013-11-11 17:28:00
9:53 AM,50.0,46.0,86,30.14,10.0,NNW,3.5,-,N/A,,Clear,340,2013-11-11 17:53:00
10:53 AM,55.0,46.9,74,30.13,10.0,WNW,5.8,-,N/A,,Clear,300,2013-11-11 18:53:00
11:53 AM,61.0,43.0,52,30.12,10.0,ESE,9.2,-,N/A,,Clear,110,2013-11-11 19:53:00
12:53 PM,61.0,39.9,46,30.09,10.0,ESE,12.7,-,N/A,,Clear,110,2013-11-11 20:53:00
1:53 PM,60.1,39.9,47,30.06,10.0,ESE,15.0,21.9,N/A,,Clear,120,2013-11-11 21:53:00
2:53 PM,57.9,41.0,53,30.06,10.0,SE,10.4,-,N/A,,Clear,130,2013-11-11 22:53:00
3:53 PM,57.0,39.0,51,30.05,10.0,SE,10.4,21.9,N/A,,Clear,130,2013-11-11 23:53:00
4:53 PM,55.9,39.0,53,30.06,10.0,SE,6.9,-,N/A,,Clear,140,2013-11-12 00:53:00
5:53 PM,54.0,39.0,57,30.06,10.0,ESE,3.5,-,N/A,,Clear,120,2013-11-12 01:53:00
6:53 PM,50.0,39.9,68,30.05,10.0,Calm,Calm,-,N/A,,Clear,0,2013-11-12 02:53:00
7:53 PM,48.0,39.9,74,30.04,10.0,Calm,Calm,-,N/A,,Clear,0,2013-11-12 03:53:00
8:53 PM,48.9,41.0,74,30.04,10.0,NW,3.5,-,N/A,,Clear,320,2013-11-12 04:53:00
9:53 PM,46.0,39.9,79,30.04,10.0,Calm,Calm,-,N/A,,Clear,0,2013-11-12 05:53:00
10:53 PM,46.0,41.0,83,30.04,10.0,Calm,Calm,-,N/A,,Clear,0,2013-11-12 06:53:00
11:53 PM,46.9,42.1,83,30.09,10.0,ENE,3.5,-,N/A,,Clear,70,2013-11-12 07:53:00